DW7249 Cayey PR US current weather conditions

sailwx.info

Wind from 124

Air temperature 21.1° C
Dewpoint 18.9° C

Last reported at 2018-Jan-22 03:08 UTC.
Time now 2018-Jan-22 04:15 UTC

Location: N 18°08' W 066°08'.
View on Google Maps.

See reports from other nearby stations

  
Tides and Currents Weather Stations Pressure Air Temp Water Temp Dewpoint Dewpoint Depression Visibility Wind Speed Wind Dir Waves Ship Positions
date/time (UTC)wind fromknots sea level pressurealtimeterstation pressurevisibilityair tempwater tempwave heightnotes
2018-Jan-22 03:08 124 21.1
2018-Jan-22 02:53 120 21.1
2018-Jan-22 02:38 131 21.1
2018-Jan-22 02:23 138 21.7
2018-Jan-22 02:08 126 21.1
2018-Jan-22 01:53 153 21.7
2018-Jan-22 01:38 129 21.7
2018-Jan-22 01:23 130 21.7
2018-Jan-22 01:08 093 21.7
2018-Jan-22 00:53 127 21.7
2018-Jan-22 00:38 150 21.7
2018-Jan-22 00:23 127 21.7
2018-Jan-22 00:08 117 21.7
2018-Jan-21 23:53 142 21.7
2018-Jan-21 23:38 136 21.7
2018-Jan-21 23:23 116 22.2
2018-Jan-21 23:08 148 22.2
2018-Jan-21 22:53 125 22.2
2018-Jan-21 22:38 131 22.2
2018-Jan-21 22:23 120 22.8
2018-Jan-21 22:08 118 22.8
2018-Jan-21 21:53 126 23.3
2018-Jan-21 21:38 141 23.9
2018-Jan-21 21:23 162 24.4
2018-Jan-21 21:08 141 25.0
2018-Jan-21 20:53 118 25.0
2018-Jan-21 20:38 123 0 gusting 6 25.0
2018-Jan-21 20:23 143 1 gusting 9 25.0
2018-Jan-21 20:08 143 0 gusting 8 25.0
2018-Jan-21 19:53 134 25.6
2018-Jan-21 19:38 162 2 gusting 10 25.6
2018-Jan-21 19:23 099 25.6
2018-Jan-21 19:08 105 26.7
2018-Jan-21 18:53 149 26.1
2018-Jan-21 18:39 163 2 gusting 8 25.6
2018-Jan-21 18:23 096 0 gusting 6 26.1
2018-Jan-21 18:08 106 0 gusting 9 26.1
2018-Jan-21 17:53 131 0 gusting 11 26.1
2018-Jan-21 17:38 136 2 gusting 8 26.1
2018-Jan-21 17:23 153 0 gusting 8 26.7
2018-Jan-21 17:08 112 1 gusting 11 26.7
2018-Jan-21 16:53 126 2 gusting 9 26.1
2018-Jan-21 16:37 159 2 gusting 10 26.1
2018-Jan-21 16:22 103 26.1
2018-Jan-21 16:07 131 2 gusting 9 25.6
2018-Jan-21 15:52 124 0 gusting 8 26.1
2018-Jan-21 15:37 068 0 gusting 8 26.1
2018-Jan-21 15:22 156 0 gusting 8 25.6
2018-Jan-21 15:07 166 1 gusting 13 25.0
2018-Jan-21 14:52 162 2 gusting 11 24.4
2018-Jan-21 14:37 104 0 gusting 7 24.4
2018-Jan-21 14:22 117 0 gusting 7 24.4
2018-Jan-21 14:07 119 2 gusting 10 25.0
2018-Jan-21 13:52 103 24.4
2018-Jan-21 13:37 108 0 gusting 8 23.9
2018-Jan-21 13:22 153 23.3
2018-Jan-21 13:07 134 1 gusting 6 22.8
2018-Jan-21 12:52 128 1 gusting 6 22.8
2018-Jan-21 12:37 126 22.2
2018-Jan-21 12:22 195 21.7
2018-Jan-21 12:07 134 21.7
2018-Jan-21 11:52 166 21.1
2018-Jan-21 11:37 170 0 gusting 4 21.1
2018-Jan-21 11:22 132 21.1
2018-Jan-21 11:07 135 21.1
2018-Jan-21 10:52 167 21.1
2018-Jan-21 10:37 173 21.1
2018-Jan-21 10:22 122 0 gusting 4 21.1
2018-Jan-21 10:07 113 21.1
2018-Jan-21 09:52 105 21.1
2018-Jan-21 09:37 149 21.1
2018-Jan-21 09:22 143 21.1
2018-Jan-21 09:07 111 20.6
2018-Jan-21 08:52 116 20.6
2018-Jan-21 08:37 103 20.6
2018-Jan-21 08:21 098 20.6
2018-Jan-21 08:07 108 20.6
2018-Jan-21 07:51 091 20.6
2018-Jan-21 07:36 095 20.0
2018-Jan-21 07:21 103 20.0
2018-Jan-21 07:06 118 20.6
2018-Jan-21 06:51 113 20.6
2018-Jan-21 06:36 086 20.6
2018-Jan-21 06:21 117 20.6
2018-Jan-21 06:06 115 20.6
2018-Jan-21 05:51 111 20.6
2018-Jan-21 05:36 091 20.6
2018-Jan-21 05:21 102 21.1
2018-Jan-21 05:06 120 21.1
2018-Jan-21 04:51 136 21.1
2018-Jan-21 04:36 117 21.1
2018-Jan-21 04:21 122 21.1
2018-Jan-21 04:06 100 20.6
2018-Jan-21 03:51 106 20.6
2018-Jan-21 03:36 116 20.6
2018-Jan-21 03:21 099 20.6
2018-Jan-21 03:06 101 20.6
2018-Jan-21 02:51 098 20.6
2018-Jan-21 02:36 103 21.1
2018-Jan-21 02:21 110 21.1
2018-Jan-21 02:06 109 21.1
2018-Jan-21 01:51 122 21.1
2018-Jan-21 01:36 098 21.1
2018-Jan-21 01:21 102 21.1
2018-Jan-21 01:06 100 21.1
2018-Jan-21 00:51 095 21.1
2018-Jan-21 00:36 094 21.7
2018-Jan-21 00:21 105 21.7
2018-Jan-21 00:06 098 21.7
2018-Jan-20 23:51 113 21.7
2018-Jan-20 23:36 109 21.7
2018-Jan-20 23:21 110 21.7
2018-Jan-20 23:06 131 22.2
2018-Jan-20 22:51 129 22.2
2018-Jan-20 22:36 150 22.2
2018-Jan-20 22:21 118 22.8
2018-Jan-20 22:06 143 22.8
2018-Jan-20 21:51 133 23.3
2018-Jan-20 21:36 101 23.9
2018-Jan-20 21:21 162 24.4
2018-Jan-20 21:06 118 24.4
2018-Jan-20 20:51 127 0 gusting 6 25.0
2018-Jan-20 20:36 124 25.0
2018-Jan-20 20:06 155 0 gusting 6 25.6
2018-Jan-20 19:51 143 0 gusting 7 25.6
2018-Jan-20 19:36 162 3 gusting 7 25.6
2018-Jan-20 19:21 106 1 gusting 8 25.6
2018-Jan-20 19:06 132 26.1
2018-Jan-20 18:51 159 3 gusting 9 25.6
2018-Jan-20 18:36 107 1 gusting 10 26.1
2018-Jan-20 18:21 136 1 gusting 10 25.6
2018-Jan-20 18:05 139 0 gusting 9 25.6
2018-Jan-20 17:50 145 3 gusting 11 25.0
2018-Jan-20 17:35 142 26.1
2018-Jan-20 17:20 152 1 gusting 6 26.1
2018-Jan-20 17:05 113 0 gusting 8 25.6
2018-Jan-20 16:50 158 1 gusting 10 26.1
2018-Jan-20 16:35 115 0 gusting 9 25.6
2018-Jan-20 16:20 136 4 gusting 11 25.0
2018-Jan-20 16:05 117 1 gusting 9 25.0
2018-Jan-20 15:50 135 1 gusting 7 25.0
2018-Jan-20 15:35 113 23.9
2018-Jan-20 15:20 111 23.3
2018-Jan-20 15:05 123 22.8
2018-Jan-20 14:50 076 23.3
2018-Jan-20 14:35 109 24.4
2018-Jan-20 14:20 046 23.9
2018-Jan-20 14:05 070 23.3
2018-Jan-20 13:50 098 0 gusting 7 23.3
2018-Jan-20 13:35 137 0 gusting 6 23.3
2018-Jan-20 13:20 110 23.3
2018-Jan-20 13:05 142 0 gusting 8 23.3
2018-Jan-20 12:50 127 0 gusting 5 22.8
2018-Jan-20 12:35 113 21.7
2018-Jan-20 12:20 098 21.1
2018-Jan-20 12:05 091 20.6
2018-Jan-20 11:50 353 20.0
2018-Jan-20 11:35 001 19.4
2018-Jan-20 11:20 349 19.4
2018-Jan-20 11:05 056 19.4
2018-Jan-20 10:50 006 19.4
2018-Jan-20 10:35 013 19.4
2018-Jan-20 10:20 015 20.0
2018-Jan-20 10:04 015 20.0
2018-Jan-20 09:49 011 20.0
2018-Jan-20 09:34 011 20.0
2018-Jan-20 09:19 011 20.0
2018-Jan-20 09:05 001 20.6
2018-Jan-20 08:50 359 20.6
2018-Jan-20 08:34 090 20.6
2018-Jan-20 08:19 094 20.6
2018-Jan-20 08:04 095 20.6
2018-Jan-20 07:49 095 20.6
2018-Jan-20 07:34 095 21.1
2018-Jan-20 07:19 101 21.1
2018-Jan-20 07:04 103 21.1
2018-Jan-20 06:49 080 21.1
2018-Jan-20 06:34 134 21.1
2018-Jan-20 06:19 101 21.1
2018-Jan-20 06:04 098 21.1
2018-Jan-20 05:49 094 21.1
2018-Jan-20 05:34 101 21.1
2018-Jan-20 05:19 101 21.1
2018-Jan-20 05:04 074 21.1
2018-Jan-20 04:49 115 21.1
2018-Jan-20 04:34 073 21.1
2018-Jan-20 04:19 108 21.1
2018-Jan-20 04:04 110 21.7